IRIDIUM 41 [+]

Last updated on Wed Jun 20 2018 00:20:19 GMT+0000 (Coordinated Universal Time)

1 25040U 97069B 18170.23214453 .00000104 00000-0 29904-4 0 9996 2 25040 86.3979 228.5037 0002290 97.0913 263.0543 14.34220700 78926
UTC large
Height (km)
Speed (km/s)
/
Latitude / Longitude
Inclination (degrees)
Orbital Period (minutes)
Azimuth
Elevation
Range (km)
Doppler Factor

Next 0 passes for location: London (51.5072 / 0.1276)

Sorry there are no passes over London.